******************************************************************************* JPL/HORIZONS (2014 FE72) 2025-Dec-12 18:01:19 Rec #:50130039 (+COV) Soln.date: 2022-Apr-28_21:33:35 # obs: 18 (2014-2021) IAU76/J2000 helio. ecliptic osc. elements (au, days, deg., period=Julian yrs): EPOCH= 2457796.5 ! 2017-Feb-12.00 (TDB) Residual RMS= .19477 EC= .987006328027489 QR= 36.27698035032324 TP= 2439113.1447390132 OM= 336.7703870662526 W= 134.4245037872976 IN= 20.59924403208806 A= 2791.895964979697 MA= .1248274501443714 ADIST= 5547.514949609071 PER= 147522.08737 N= 6.681E-6 ANGMOM= .146048342 DAN= 233.18166 DDN= 42.63038 L= 113.0871898 B= 14.5525066 MOID= 35.32590103 TP= 1965-Dec-18.6447390132 Asteroid physical parameters (km, seconds, rotational period in hours): GM= n.a. RAD= n.a. ROTPER= n.a. H= 6.19 G= .150 B-V= n.a. ALBEDO= n.a. STYP= n.a. ASTEROID comments: 1: soln ref.= JPL#6, OCC=3 2: source=ORB ******************************************************************************* ******************************************************************************* Ephemeris / WWW_USER Fri Dec 12 18:01:19 2025 Pasadena, USA / Horizons ******************************************************************************* Target body name: (2014 FE72) {source: JPL#6} Center body name: Solar System Barycenter (0) {source: DE441} Center-site name: BODY CENTER ******************************************************************************* Start time : A.D. 2022-Jan-21 00:00:00.0000 TDB Stop time : A.D. 2022-Feb-21 00:00:00.0000 TDB Step-size : 1 calendar years ******************************************************************************* Center geodetic : 0.0, 0.0, 0.0 {E-lon(deg),Lat(deg),Alt(km)} Center cylindric: 0.0, 0.0, 0.0 {E-lon(deg),Dxy(km),Dz(km)} Center radii : (undefined) Keplerian GM : 2.9630927493968080E-04 au^3/d^2 Small perturbers: Yes {source: SB441-N16} Output units : AU-D, deg, Julian Day Number (Tp) Calendar mode : Mixed Julian/Gregorian Output type : GEOMETRIC osculating elements Output format : 10 Reference frame : Ecliptic of J2000.0 ******************************************************************************* Initial IAU76/J2000 heliocentric ecliptic osculating elements (au, days, deg.): EPOCH= 2457796.5 ! 2017-Feb-12.00 (TDB) Residual RMS= .19477 EC= .987006328027489 QR= 36.27698035032324 TP= 2439113.1447390132 OM= 336.7703870662526 W= 134.4245037872976 IN= 20.59924403208806 Equivalent ICRF heliocentric cartesian coordinates (au, au/d): X=-5.959623656650902E+01 Y=-4.365032051562310E+00 Z=-1.532433808581299E+01 VX=-1.387835740161867E-03 VY=-1.891144001328431E-03 VZ=-1.996268953736515E-03 Asteroid physical parameters (km, seconds, rotational period in hours): GM= n.a. RAD= n.a. ROTPER= n.a. H= 6.19 G= .150 B-V= n.a. ALBEDO= n.a. STYP= n.a. ******************************************************************************* JDTDB EC QR IN OM W Tp N MA TA A AD PR ******************************************************************************* $$SOE 2459600.500000000 = A.D. 2022-Jan-21 00:00:00.0000 TDB EC= 9.823426849635953E-01 QR= 3.610075208344318E+01 IN= 2.063255922492334E+01 OM= 3.368292947141660E+02 W = 1.339205297000891E+02 Tp= 2439061.480356263928 N = 1.066861098039178E-05 MA= 2.191228104976204E-01 TA= 8.435709004731005E+01 A = 2.044521038958221E+03 AD= 4.052941325832999E+03 PR= 3.374384919101997E+07 $$EOE ******************************************************************************* TIME Barycentric Dynamical Time ("TDB" or T_eph) output was requested. This continuous coordinate time is equivalent to the relativistic proper time of a clock at rest in a reference frame co-moving with the solar system barycenter but outside the system's gravity well. It is the independent variable in the solar system relativistic equations of motion. TDB runs at a uniform rate of one SI second per second and is independent of irregularities in Earth's rotation. CALENDAR SYSTEM Mixed calendar mode was active such that calendar dates after AD 1582-Oct-15 (if any) are in the modern Gregorian system. Dates prior to 1582-Oct-5 (if any) are in the Julian calendar system, which is automatically extended for dates prior to its adoption on 45-Jan-1 BC. The Julian calendar is useful for matching historical dates. The Gregorian calendar more accurately corresponds to the Earth's orbital motion and seasons. A "Gregorian-only" calendar mode is available if such physical events are the primary interest. REFERENCE FRAME AND COORDINATES Ecliptic at the standard reference epoch Reference epoch: J2000.0 X-Y plane: adopted Earth orbital plane at the reference epoch Note: IAU76 obliquity of 84381.448 arcseconds wrt ICRF X-Y plane X-axis : ICRF Z-axis : perpendicular to the X-Y plane in the directional (+ or -) sense of Earth's north pole at the reference epoch. Symbol meaning [1 au= 149597870.700 km, 1 day= 86400.0 s]: JDTDB Julian Day Number, Barycentric Dynamical Time EC Eccentricity, e QR Periapsis distance, q (au) IN Inclination w.r.t X-Y plane, i (degrees) OM Longitude of Ascending Node, OMEGA, (degrees) W Argument of Perifocus, w (degrees) Tp Time of periapsis (Julian Day Number) N Mean motion, n (degrees/day) MA Mean anomaly, M (degrees) TA True anomaly, nu (degrees) A Semi-major axis, a (au) AD Apoapsis distance (au) PR Sidereal orbit period (day) ABERRATIONS AND CORRECTIONS Geometric osculating elements have NO corrections or aberrations applied. Computations by ... Solar System Dynamics Group, Horizons On-Line Ephemeris System 4800 Oak Grove Drive, Jet Propulsion Laboratory Pasadena, CA 91109 USA General site: https://ssd.jpl.nasa.gov/ Mailing list: https://ssd.jpl.nasa.gov/email_list.html System news : https://ssd.jpl.nasa.gov/horizons/news.html User Guide : https://ssd.jpl.nasa.gov/horizons/manual.html Connect : browser https://ssd.jpl.nasa.gov/horizons/app.html#/x API https://ssd-api.jpl.nasa.gov/doc/horizons.html command-line telnet ssd.jpl.nasa.gov 6775 e-mail/batch https://ssd.jpl.nasa.gov/ftp/ssd/horizons_batch.txt scripts https://ssd.jpl.nasa.gov/ftp/ssd/SCRIPTS Author : Jon.D.Giorgini@jpl.nasa.gov ******************************************************************************* !$$SOF CENTER = '0' COMMAND = "2014 FE72" OUT_UNITS = AU-D START_TIME = 2022-01-21 STEP_SIZE = 1Y STOP_TIME = 2022-02-21 TABLE_TYPE = ELEMENTS